Regional Weather Roundup
Issued by NWS Mt. Holly, NJ

Home | Current Version | Previous Version | Text Only | Print | Product List | Glossary On
Versions: 1 2 3 4 5 6 7 8 9 10 11 12 13 14 15 16 17 18 19 20 21 22 23 24 25 26 27 28 29 30 31 32 33 34 35 36 37 38 39 40 41 42 43 44 45 46 47 48 49 50
000
ASUS41 KPHI 291812
RWRPHI

REGIONAL WEATHER ROUNDUP
NATIONAL WEATHER SERVICE MOUNT HOLLY NJ
200 PM EDT MON AUG 29 2016

NOTE:  "FAIR" INDICATES FEW OR NO CLOUDS BELOW 12,000 FEET WITH NO
SIGNIFICANT WEATHER AND/OR OBSTRUCTIONS TO VISIBILITY.

 * = STATION DOES NOT REPORT PRECIPITATION (E.G. RAIN, SNOW, ETC.)
        OR FOG.

NJZ015>026-291900-
SOUTHERN NEW JERSEY

CITY           SKY/WX    TMP DP  RH WIND       PRES   REMARKS
POMONA         MOSUNNY   90  67  46 W8        30.10F HX  93
6HR MIN TEMP:  72; 6HR MAX TEMP:  91;

WILDWOOD*        N/A     84  66  54 W6        30.13F
MILLVILLE      MOSUNNY   88  72  58 W7        30.12F HX  94
WRIGHTSTOWN    MOSUNNY   90  69  50 W7        30.07F HX  94
MOUNT HOLLY    MOSUNNY   90  67  46 N8        30.10S HX  93
TRENTON        MOSUNNY   90  68  48 VRB7      30.10F HX  94
6HR MIN TEMP:  74; 6HR MAX TEMP:  90;


$$
NJZ001>014-291900-
NORTHERN NEW JERSEY

CITY           SKY/WX    TMP DP  RH WIND       PRES   REMARKS
SUSSEX         SUNNY     84  62  47 W9G16     30.14F
ANDOVER*         N/A     84  62  47 NW5       30.14F
MORRISTOWN     MOSUNNY   88  57  35 N5G14     30.11F
NEWARK         MOSUNNY   92  59  33 N14G20    30.08F HX  91
TETERBORO      SUNNY     89  61  38 N10       30.07F
CALDWELL       SUNNY     88  62  41 NW10G17   30.11F
SOMERVILLE     SUNNY     91  60  35 NW9       30.09F HX  90
ALLAIRE*       MOSUNNY   91  68  46 NW10      30.10F HX  95
TOMS RIVER*    MOSUNNY   89  69  51 VRB3      30.10F HX  93

$$
PAZ043-044-047-054-055-060>062-066>071-291900-
EASTERN PENNSYLVANIA

CITY           SKY/WX    TMP DP  RH WIND       PRES   REMARKS
PHILADELPHIA   PTSUNNY   91  67  44 W10G18    30.11F HX  94
6HR MIN TEMP:  75; 6HR MAX TEMP:  91;

NORTH PHILA    MOSUNNY   93  69  45 VRB3      30.12F HX  98
BLUE BELL*     MOSUNNY   88  68  51 W5        30.11F HX  91
DOYLESTOWN       N/A     93  66  40 NW9       30.12F HX  96
QUAKERTOWN*    MOSUNNY   90  57  33 N7        30.15S
POTTSTOWN      MOSUNNY   89  68  49 W8        30.14F HX  93
LANCASTER      MOSUNNY   89  68  49 N9        30.15S HX  93
COATESVILLE    MOSUNNY   86  68  54 VRB3      30.17S
READING        MOSUNNY   88  63  43 NW9       30.13F
6HR MIN TEMP:  73; 6HR MAX TEMP:  89;

ALLENTOWN      SUNNY     88  59  37 VRB7      30.14F
6HR MIN TEMP:  72; 6HR MAX TEMP:  89;

MOUNT POCONO   SUNNY     78  57  48 NW12G17   30.22S
6HR MIN TEMP:  68; 6HR MAX TEMP:  78;

WILKES BARRE   MOSUNNY   83  60  45 NW10      30.19F

$$
DEZALL-MDZ008-012-015-019-020-291900-
DELAWARE AND EASTERN MARYLAND

CITY           SKY/WX    TMP DP  RH WIND       PRES   REMARKS
WILMINGTON     MOSUNNY   91  69  48 VRB5      30.12F HX  96
6HR MIN TEMP:  73; 6HR MAX TEMP:  92;

DOVER          PTSUNNY   87  73  62 W6        30.11F HX  94
GEORGETOWN     MOSUNNY   87  65  47 NW5       30.14S
6HR MIN TEMP:  69; 6HR MAX TEMP:  87;

EASTON         MOSUNNY   88  75  66 W7        30.18S HX  97
ABERDEEN       PTSUNNY   88  70  55 CALM      30.12F HX  92
PATUXENT       MOSUNNY   87  63  44 NE7       30.14S
OCEAN CITY     MOSUNNY   83  70  64 E8        30.13S
WALLOPS ISLAND PTSUNNY   86  60  41 E8        30.13S
CAMBRIDGE      SUNNY     84  66  54 CALM      30.13F
SALISBURY      SUNNY     88  66  48 NE7       30.13S HX  90

$$
PAZ001-021-NYZ056-072-MDZ011-DCZ001-291900-
OTHER NEARBY LOCATIONS

CITY           SKY/WX    TMP DP  RH WIND       PRES   REMARKS
HARRISBURG     MOSUNNY   89  63  41 N9G16     30.14F HX  90
STATE COLLEGE  MOSUNNY   81  64  57 CALM      30.23F
WILLIAMSPORT   MOSUNNY   86  60  41 MISG      30.17F
BINGHAMTON     MOSUNNY   75  59  57 N10       30.24S
NEW YORK CITY  SUNNY     90  58  33 NW7       30.11F
BALTIMORE      PTSUNNY   91  66  43 CALM      30.13F HX  93
WASHINGTON DC  PTSUNNY   89  68  49 E5        30.14F HX  93

$$



USA.gov is the U.S. government's official web portal to all federal, state and local government web resources and services.